Date,TemperatureHighF,TemperatureAvgF,TemperatureLowF,DewpointHighF,DewpointAvgF,DewpointLowF,HumidityHigh,HumidityAvg,HumidityLow,PressureMaxIn,PressureMinIn,WindSpeedMaxMPH,WindSpeedAvgMPH,GustSpeedMaxMPH,PrecipitationSumIn
2013-1-1,20.0,9.4,0.0,8.0,2.6,-2.0,95,75,50,0.00,40.00,22,8,34,0.00
2013-1-2,15.0,12.6,10.0,5.0,2.1,-3.0,73,62,51,0.00,40.00,29,23,40,0.00
2013-1-3,20.0,11.7,6.0,5.0,-3.5,-8.0,67,50,35,0.00,40.00,15,6,21,0.00
2013-1-4,33.0,17.5,10.0,9.0,-0.3,-9.0,62,46,28,0.00,40.00,10,2,12,0.00
2013-1-5,29.0,15.4,3.0,8.0,-1.0,-9.0,70,49,29,0.00,40.00,21,6,26,0.00
2013-1-6,44.0,28.8,15.0,12.0,-5.3,-18.0,40,23,12,0.00,40.00,11,4,17,0.00
2013-1-7,37.0,28.9,15.0,17.0,2.5,-10.0,61,33,15,0.00,40.00,37,6,55,0.00
2013-1-8,31.0,28.2,25.0,21.0,17.0,13.0,74,63,47,0.00,40.00,44,26,62,0.03
2013-1-9,45.0,32.9,21.0,23.0,13.8,1.0,73,48,16,0.00,40.00,22,7,40,0.00
2013-1-10,45.0,35.0,24.0,16.0,9.2,-1.0,58,35,15,0.00,40.00,26,13,39,0.00
2013-1-11,33.0,17.8,3.0,24.0,7.5,-4.0,99,65,42,0.00,40.00,31,14,49,0.07
2013-1-12,3.0,-1.7,-9.0,-1.0,-5.6,-12.0,88,83,71,0.00,40.00,19,6,26,0.00
2013-1-13,-2.0,-4.7,-11.0,-5.0,-7.9,-15.0,87,85,82,0.00,40.00,7,3,9,0.00
2013-1-14,5.0,-4.2,-11.0,-1.0,-10.8,-17.0,85,74,42,0.00,40.00,25,4,35,0.00
2013-1-15,28.0,15.0,-3.0,20.0,5.0,-13.0,74,64,49,0.00,40.00,28,18,42,0.00
2013-1-16,35.0,22.1,9.0,19.0,13.3,6.0,90,69,46,0.00,40.00,21,7,32,0.00
2013-1-17,35.0,24.5,12.0,16.0,8.8,1.0,75,53,24,0.00,40.00,24,5,39,0.00
2013-1-18,39.0,35.2,33.0,7.0,3.7,0.0,29,26,23,0.00,40.00,34,22,48,0.00
2013-1-19,43.0,34.3,25.0,10.0,2.4,-6.0,41,26,12,0.00,40.00,37,14,54,0.00
2013-1-20,38.0,31.3,20.0,15.0,4.3,0.0,55,32,23,0.00,40.00,32,12,50,0.00
2013-1-21,39.0,32.5,19.0,10.0,5.1,-6.0,58,33,15,0.00,40.00,37,21,58,0.00
2013-1-22,45.0,40.0,36.0,-3.0,-7.9,-15.0,19,13,8,0.00,40.00,42,26,65,0.00
2013-1-23,54.0,44.3,35.0,5.0,-4.5,-18.0,26,13,7,0.00,40.00,28,12,44,0.00
2013-1-24,46.0,38.5,34.0,29.0,15.4,1.0,82,44,18,0.00,40.00,38,15,57,0.24
2013-1-25,43.0,35.9,27.0,26.0,23.2,20.0,76,60,41,0.00,40.00,30,7,45,0.00
2013-1-26,44.0,37.8,32.0,27.0,24.8,21.0,78,60,42,0.00,40.00,19,6,33,0.00
2013-1-27,44.0,35.0,28.0,29.0,22.7,16.0,98,63,34,0.00,40.00,20,8,29,0.00
2013-1-28,35.0,24.2,13.0,23.0,13.6,-3.0,88,64,46,0.00,40.00,22,14,33,0.00
2013-1-29,18.0,12.3,7.0,8.0,0.5,-4.0,92,60,40,0.00,40.00,24,15,41,0.01
2013-1-30,25.0,18.1,6.0,19.0,9.6,-2.0,88,69,58,0.00,40.00,42,27,62,0.20
2013-1-31,28.0,25.9,21.0,20.0,16.0,13.0,93,66,53,0.00,40.00,34,24,52,0.00
2013-2-1,29.0,26.7,23.0,24.0,18.3,14.0,97,71,58,0.00,40.00,39,20,56,0.27
2013-2-2,38.0,29.9,21.0,19.0,9.6,5.0,86,44,27,0.00,40.00,37,17,55,0.03
2013-2-3,41.0,31.0,21.0,9.0,4.6,-2.0,55,34,17,0.00,40.00,24,9,40,0.00
2013-2-4,37.0,31.6,26.0,16.0,8.9,2.0,54,39,29,0.00,40.00,40,18,57,0.00
2013-2-5,45.0,37.1,28.0,23.0,17.8,13.0,61,46,29,0.00,40.00,37,13,55,0.00
2013-2-6,39.0,33.6,24.0,24.0,15.0,8.0,66,47,29,0.00,40.00,24,11,35,0.00
2013-2-7,40.0,27.7,16.0,13.0,1.2,-17.0,71,37,11,0.00,40.00,17,6,24,0.00
2013-2-8,42.0,32.5,24.0,14.0,3.2,-15.0,55,30,10,0.00,40.00,17,10,22,0.00
2013-2-9,29.0,20.0,16.0,20.0,16.1,11.0,96,86,53,0.00,40.00,20,8,24,0.38
2013-2-10,16.0,11.9,1.0,15.0,9.0,-5.0,94,88,70,0.00,40.00,24,15,30,0.10
2013-2-11,28.0,8.8,1.0,4.0,-5.7,-15.0,75,52,26,0.00,40.00,16,4,34,0.00
2013-2-12,23.0,13.6,4.0,13.0,-0.6,-17.0,78,54,24,0.00,40.00,32,7,45,0.00
2013-2-13,26.0,22.8,13.0,18.0,15.3,8.0,87,73,60,0.00,40.00,42,26,62,0.03
2013-2-14,24.0,17.0,12.0,19.0,12.7,9.0,96,83,66,0.00,40.00,30,16,46,0.19
2013-2-15,27.0,19.8,11.0,14.0,10.7,6.0,94,68,47,0.00,40.00,37,23,47,0.00
2013-2-16,38.0,31.8,25.0,17.0,12.0,5.0,67,45,26,0.00,40.00,40,27,57,0.00
2013-2-17,40.0,29.9,17.0,20.0,8.5,-3.0,92,44,22,0.00,40.00,33,18,49,0.14
2013-2-18,20.0,16.7,11.0,16.0,8.1,-1.0,95,69,46,0.00,40.00,29,15,38,0.01
2013-2-19,36.0,23.0,11.0,12.0,0.7,-10.0,58,38,24,0.00,40.00,19,7,22,0.00
2013-2-20,39.0,28.1,17.0,23.0,8.8,-3.0,99,50,21,0.00,40.00,16,7,21,0.02
2013-2-21,18.0,15.3,12.0,17.0,12.7,5.0,97,90,68,0.00,40.00,26,9,31,0.02
2013-2-22,22.0,17.8,14.0,9.0,5.3,2.0,76,58,44,0.00,40.00,39,13,58,0.00
2013-2-23,33.0,24.3,17.0,21.0,12.4,4.0,96,62,45,0.00,40.00,15,7,38,0.01
2013-2-24,19.0,14.9,6.0,19.0,12.4,0.0,97,90,63,0.00,40.00,21,12,26,0.93
2013-2-25,25.0,14.7,7.0,8.0,3.7,-1.0,74,62,43,0.00,40.00,15,5,24,0.00
2013-2-26,24.0,17.4,13.0,15.0,11.5,6.0,95,78,52,0.00,40.00,26,16,38,0.09
2013-2-27,22.0,15.6,8.0,8.0,4.5,-3.0,80,62,38,0.00,40.00,29,14,40,0.00
2013-2-28,25.0,21.2,16.0,15.0,9.4,4.0,71,60,47,0.00,40.00,32,22,54,0.00
2013-3-1,36.0,29.8,23.0,24.0,17.5,4.0,75,60,39,0.00,40.00,30,22,45,0.00
2013-3-2,47.0,39.8,33.0,22.0,18.7,14.0,64,43,29,0.00,40.00,22,13,34,0.00
2013-3-3,41.0,36.7,33.0,29.0,22.5,15.0,80,58,35,0.00,40.00,37,20,55,0.12
2013-3-4,32.0,19.8,10.0,21.0,10.5,3.0,93,68,52,0.00,40.00,37,24,56,0.04
2013-3-5,40.0,27.9,9.0,8.0,-2.4,-17.0,78,30,10,0.00,40.00,17,7,31,0.00
2013-3-6,50.0,40.5,31.0,15.0,8.1,-11.0,40,27,13,0.00,40.00,19,10,31,0.00
2013-3-7,44.0,38.0,30.0,25.0,20.0,12.0,72,49,31,0.00,40.00,28,7,44,0.00
2013-3-8,48.0,38.4,29.0,27.0,15.6,8.0,90,43,21,0.00,40.00,17,9,24,0.00
2013-3-9,31.0,24.0,17.0,27.0,20.7,13.0,99,87,72,0.00,40.00,29,18,35,0.46
2013-3-10,36.0,26.1,17.0,17.0,12.4,1.0,95,58,34,0.00,40.00,30,22,44,0.00
2013-3-11,33.0,27.4,20.0,28.0,18.4,10.0,99,72,38,0.00,40.00,37,19,55,0.79
2013-3-12,36.0,25.6,14.0,27.0,20.4,13.0,97,82,61,0.00,40.00,30,14,45,0.00
2013-3-13,47.0,39.6,32.0,27.0,24.4,19.0,82,55,34,0.00,40.00,32,16,58,0.00
2013-3-14,52.0,45.7,39.0,25.0,19.6,14.0,52,36,25,0.00,40.00,22,15,36,0.00
2013-3-15,53.0,48.5,38.0,31.0,17.1,10.0,76,29,17,0.00,40.00,34,22,59,0.03
2013-3-16,45.0,38.2,28.0,30.0,16.9,2.0,87,46,18,0.00,40.00,32,14,47,0.00
2013-3-17,37.0,30.2,18.0,25.0,9.2,-4.0,80,42,25,0.00,40.00,39,22,64,0.01
2013-3-18,30.0,22.6,16.0,19.0,5.7,2.0,80,48,31,0.00,40.00,33,20,50,0.00
2013-3-19,35.0,26.4,17.0,8.0,-0.3,-11.0,61,34,14,0.00,40.00,36,22,52,0.00
2013-3-20,44.0,33.8,21.0,26.0,8.1,-10.0,65,36,16,0.00,40.00,31,9,44,0.00
2013-3-21,38.0,30.5,19.0,31.0,20.5,7.0,99,67,50,0.00,40.00,31,13,41,0.12
2013-3-22,25.0,18.9,14.0,15.0,6.6,-2.0,92,60,30,0.00,40.00,22,10,38,0.13
2013-3-23,15.0,10.0,7.0,13.0,8.2,5.0,94,92,91,0.00,40.00,17,9,21,0.22
2013-3-25,25.0,17.6,8.0,7.0,2.2,-8.0,69,51,28,0.00,40.00,21,11,26,0.00
2013-3-26,42.0,30.0,17.0,27.0,15.3,-9.0,80,55,26,0.00,40.00,17,8,36,0.00
2013-3-27,47.0,35.6,26.0,27.0,22.9,18.0,90,62,32,0.00,40.00,16,5,24,0.00
2013-3-28,50.0,41.3,31.0,25.0,21.2,18.0,66,46,29,0.00,40.00,21,9,28,0.00
2013-3-29,50.0,40.7,33.0,35.0,27.2,23.0,88,59,36,0.00,40.00,35,10,45,0.00
2013-3-30,49.0,39.2,28.0,28.0,22.7,-99.9,76,54,30,0.00,40.00,28,19,45,0.00
2013-3-31,52.0,41.9,30.0,23.0,12.2,0.0,71,32,15,0.00,40.00,30,14,48,0.00
2013-4-1,46.0,35.0,23.0,30.0,24.2,20.0,92,68,39,0.00,40.00,24,8,29,0.00
2013-4-2,37.0,31.7,28.0,33.0,29.3,25.0,100,91,66,0.00,40.00,15,8,19,0.01
2013-4-3,52.0,39.0,27.0,33.0,21.7,7.0,89,55,20,0.00,40.00,28,8,37,0.00
2013-4-4,57.0,45.5,35.0,28.0,23.2,18.0,75,44,24,0.00,40.00,16,8,26,0.00
2013-4-5,54.0,46.1,37.0,37.0,24.1,17.0,88,45,26,0.00,40.00,24,10,39,0.00
2013-4-6,47.0,38.3,32.0,32.0,23.7,19.0,78,56,41,0.00,40.00,29,14,41,0.00
2013-4-7,45.0,38.6,33.0,31.0,24.5,19.0,90,58,39,0.00,40.00,29,13,44,0.00
2013-4-8,46.0,31.6,13.0,29.0,21.9,11.0,98,70,35,0.00,40.00,32,11,41,0.29
2013-4-9,12.0,5.6,-2.0,11.0,3.4,-5.0,95,90,87,0.00,40.00,14,7,17,0.18
2013-4-10,30.0,15.2,-2.0,23.0,7.6,-4.0,92,73,37,0.00,40.00,28,17,45,0.01
2013-4-11,36.0,32.4,29.0,29.0,24.5,22.0,99,73,57,0.00,40.00,32,20,45,0.17
2013-4-12,41.0,31.3,25.0,31.0,24.9,15.0,100,80,35,0.00,40.00,35,12,43,0.04
2013-4-13,47.0,37.2,26.0,32.0,21.5,9.0,100,57,28,0.00,40.00,45,14,73,0.09
2013-4-14,28.0,22.8,16.0,22.0,8.6,0.0,90,56,31,0.00,40.00,36,22,49,0.01
2013-4-15,24.0,18.2,15.0,19.0,16.3,8.0,96,92,49,0.00,40.00,20,9,27,0.30
2013-4-16,24.0,18.2,14.0,22.0,17.1,12.0,97,95,91,0.00,40.00,26,20,35,0.22
2013-4-17,18.0,12.6,6.0,17.0,11.2,4.0,96,94,91,0.00,40.00,18,11,22,0.67
2013-4-18,25.0,14.2,2.0,14.0,6.1,-1.0,92,71,49,0.00,40.00,37,22,45,0.00
2013-4-19,37.0,29.6,22.0,22.0,16.9,12.0,72,59,46,0.00,40.00,35,19,47,0.01
2013-4-20,44.0,35.0,29.0,31.0,25.8,20.0,96,69,48,0.00,40.00,22,8,30,0.00
2013-4-21,43.0,37.0,31.0,26.0,22.6,17.0,77,57,34,0.00,40.00,26,13,38,0.00
2013-4-22,38.0,22.6,11.0,31.0,19.2,10.0,99,88,49,0.00,40.00,27,13,39,0.70
2013-4-23,33.0,17.0,3.0,26.0,10.0,1.0,97,76,47,0.00,40.00,23,9,31,0.04
2013-4-24,37.0,28.6,18.0,18.0,9.6,3.0,66,45,29,0.00,40.00,29,14,37,0.00
2013-4-25,48.0,40.1,31.0,18.0,9.8,0.0,45,29,14,0.00,40.00,27,11,36,0.00
2013-4-26,52.0,42.5,30.0,25.0,13.8,7.0,49,32,18,0.00,40.00,15,5,19,0.00
2013-4-27,58.0,49.4,37.0,21.0,15.8,11.0,44,26,19,0.00,40.00,23,13,35,0.00
2013-4-28,62.0,52.6,44.0,30.0,23.6,18.0,58,33,21,0.00,40.00,26,17,43,0.00
2013-4-29,62.0,51.4,40.0,31.0,20.9,14.0,64,33,18,0.00,40.00,41,14,58,0.00
2013-4-30,51.0,40.0,26.0,34.0,30.1,22.0,100,71,32,0.00,40.00,26,13,44,0.20
2013-5-1,27.0,21.3,15.0,27.0,20.4,13.0,100,96,87,0.00,40.00,16,10,23,0.22
2013-5-2,39.0,26.1,11.0,17.0,12.2,6.0,93,59,31,0.00,40.00,23,9,33,0.00
2013-5-3,52.0,42.1,32.0,28.0,14.3,8.0,64,34,19,0.00,40.00,18,13,26,0.00
2013-5-4,47.0,39.8,33.0,29.0,25.2,19.0,75,57,34,0.00,40.00,17,12,28,0.00
2013-5-5,50.0,38.1,27.0,33.0,25.2,20.0,85,61,37,0.00,40.00,17,12,29,0.01
2013-5-6,53.0,44.6,33.0,34.0,29.6,26.0,87,57,38,0.00,40.00,19,6,25,0.00
2013-5-7,54.0,44.3,36.0,40.0,33.1,27.0,86,66,42,0.00,40.00,13,5,22,0.00
2013-5-8,53.0,43.3,34.0,39.0,33.6,29.0,93,69,40,0.00,40.00,24,7,31,0.00
2013-5-9,51.0,42.9,37.0,39.0,34.2,29.0,98,73,44,0.00,40.00,19,6,24,0.01
2013-5-10,56.0,45.0,35.0,37.0,27.1,-99.9,96,56,28,0.00,40.00,22,9,37,0.00
2013-5-11,60.0,48.2,36.0,36.0,26.6,-99.9,81,48,17,0.00,40.00,22,9,40,0.00
2013-5-12,68.0,56.0,42.0,30.0,26.9,22.0,56,34,20,0.00,40.00,21,11,30,0.00
2013-5-13,74.0,63.2,52.0,32.0,29.7,27.0,43,29,18,0.00,40.00,14,8,25,0.00
2013-5-14,73.0,64.7,55.0,32.0,27.4,24.0,38,25,17,0.00,40.00,17,8,26,0.00
2013-5-15,67.0,57.4,47.0,44.0,35.0,29.0,86,45,25,0.00,40.00,21,10,34,0.00
2013-5-16,70.0,53.7,48.0,43.0,18.5,-99.9,83,44,16,0.00,40.00,29,10,36,0.00
2013-5-17,70.0,60.1,50.0,36.0,21.1,-99.9,58,28,14,0.00,40.00,16,11,26,0.00
2013-5-18,60.0,50.1,44.0,35.0,29.1,21.0,69,45,27,0.00,40.00,23,8,38,0.00
2013-5-19,50.0,43.8,38.0,38.0,32.2,28.0,94,64,47,0.00,40.00,31,18,41,0.04
2013-5-20,45.0,39.4,35.0,38.0,34.5,27.0,96,83,62,0.00,40.00,32,22,42,0.12
2013-5-21,54.0,43.7,32.0,31.0,27.4,24.0,77,54,32,0.00,40.00,26,16,37,0.00
2013-5-22,62.0,51.4,39.0,42.0,32.6,27.0,83,51,26,0.00,40.00,24,9,32,0.00
2013-5-23,61.0,49.6,39.0,46.0,42.1,38.0,100,77,52,0.00,40.00,27,20,37,0.00
2013-5-24,70.0,56.5,43.0,42.0,25.5,14.0,92,37,12,0.00,40.00,18,10,29,0.00
2013-5-25,72.0,61.5,47.0,42.0,19.6,13.0,68,23,11,0.00,40.00,21,10,29,0.00
2013-5-26,74.0,62.5,52.0,37.0,16.9,10.0,33,18,11,0.00,40.00,14,7,27,0.00
2013-5-27,67.0,57.6,46.0,37.0,21.2,13.0,58,25,16,0.00,40.00,29,9,43,0.00
2013-5-28,66.0,54.2,40.0,36.0,23.3,12.0,65,31,19,0.00,40.00,22,9,43,0.00
2013-5-29,52.0,44.4,39.0,39.0,35.0,29.0,91,70,42,0.00,40.00,24,11,42,0.09
2013-5-30,53.0,44.7,38.0,32.0,25.3,16.0,75,49,24,0.00,40.00,40,20,63,0.00
2013-5-31,55.0,44.6,37.0,33.0,24.2,19.0,72,47,25,0.00,40.00,34,23,54,0.00
2013-6-1,58.0,45.9,37.0,34.0,32.4,30.0,83,61,35,0.00,40.00,33,17,44,0.00
2013-6-2,74.0,58.6,38.0,33.0,25.1,17.0,74,33,13,0.00,40.00,17,9,28,0.00
2013-6-3,70.0,62.4,47.0,32.0,17.4,8.0,37,18,11,0.00,40.00,28,16,44,0.00
2013-6-4,67.0,50.9,38.0,42.0,25.0,15.0,82,41,17,0.00,40.00,23,8,30,0.00
2013-6-5,62.0,48.7,38.0,40.0,32.4,19.0,87,60,20,0.00,40.00,21,9,29,0.00
2013-6-6,67.0,55.9,42.0,38.0,27.2,19.0,76,35,22,0.00,40.00,17,7,25,0.00
2013-6-7,71.0,59.8,46.0,37.0,33.5,27.0,69,40,20,0.00,40.00,21,8,35,0.00
2013-6-8,66.0,58.5,47.0,44.0,31.9,22.0,83,40,19,0.00,40.00,30,16,41,0.00
2013-6-9,80.0,66.5,48.0,34.0,27.9,22.0,42,25,13,0.00,40.00,22,10,35,0.00
2013-6-10,85.0,73.4,58.0,34.0,28.1,24.0,32,19,12,0.00,40.00,30,9,48,0.00
2013-6-11,79.0,70.3,60.0,29.0,20.4,16.0,25,15,11,0.00,40.00,19,11,40,0.00
2013-6-12,80.0,67.8,53.0,43.0,27.8,22.0,51,24,12,0.00,40.00,23,8,30,0.00
2013-6-13,79.0,68.9,56.0,45.0,30.1,22.0,64,26,14,0.00,40.00,21,11,35,0.00
2013-6-14,76.0,65.3,51.0,31.0,22.5,16.0,38,21,12,0.00,40.00,18,10,30,0.00
2013-6-15,76.0,59.7,43.0,38.0,19.9,10.0,53,23,10,0.00,40.00,17,6,30,0.00
2013-6-16,74.0,61.8,49.0,41.0,23.9,13.0,53,26,11,0.00,40.00,20,9,29,0.00
2013-6-17,70.0,60.8,47.0,44.0,35.5,30.0,76,40,26,0.00,40.00,18,7,22,0.00
2013-6-18,72.0,60.4,47.0,47.0,37.6,20.0,97,50,15,0.00,40.00,24,12,42,0.00
2013-6-19,80.0,66.4,47.0,43.0,23.5,11.0,82,29,8,0.00,40.00,21,13,32,0.00
2013-6-20,75.0,57.8,49.0,21.0,16.7,7.0,29,20,11,0.00,40.00,16,8,24,0.00
2013-6-22,76.0,64.2,55.0,38.0,24.1,13.0,46,23,13,0.00,40.00,24,13,37,0.00
2013-6-23,76.0,61.3,41.0,38.0,24.9,15.0,79,29,12,0.00,40.00,15,8,30,0.00
2013-6-24,78.0,67.0,52.0,35.0,23.7,17.0,50,21,11,0.00,40.00,16,9,26,0.00
2013-6-25,72.0,63.1,52.0,37.0,33.3,28.0,53,34,24,0.00,40.00,25,10,35,0.00
2013-6-26,82.0,71.1,54.0,37.0,31.9,27.0,48,26,14,0.00,40.00,16,7,29,0.00
2013-6-27,84.0,72.5,59.0,36.0,31.1,26.0,39,23,13,0.00,40.00,23,9,32,0.00
2013-6-28,83.0,70.7,55.0,48.0,40.2,27.0,58,36,13,0.00,40.00,17,9,29,0.00
2013-6-29,80.0,68.8,55.0,50.0,43.0,33.0,76,43,19,0.00,40.00,14,8,26,0.00
2013-6-30,76.0,62.8,51.0,52.0,48.0,40.0,94,62,27,0.00,40.00,17,8,26,0.01
2013-7-1,72.0,62.3,53.0,50.0,43.5,38.0,77,53,30,0.00,40.00,16,8,24,0.00
2013-7-2,74.0,64.2,54.0,45.0,38.8,30.0,64,42,20,0.00,40.00,14,8,22,0.00
2013-7-3,79.0,66.4,55.0,44.0,37.4,33.0,49,35,19,0.00,40.00,24,11,37,0.00
2013-7-4,79.0,67.1,56.0,50.0,41.5,34.0,74,41,20,0.00,40.00,20,7,32,0.00
2013-7-5,76.0,64.2,55.0,53.0,48.3,43.0,92,59,34,0.00,40.00,21,7,26,0.03
2013-7-6,76.0,67.0,55.0,52.0,41.1,32.0,85,42,21,0.00,40.00,30,8,40,0.00
2013-7-7,78.0,68.4,53.0,49.0,39.3,27.0,77,39,15,0.00,40.00,17,8,26,0.00
2013-7-8,77.0,66.8,58.0,43.0,39.3,36.0,52,37,24,0.00,40.00,18,8,30,0.00
2013-7-9,80.0,70.3,62.0,38.0,35.7,28.0,40,29,15,0.00,40.00,21,10,40,0.00
2013-7-10,83.0,69.4,56.0,50.0,32.8,-99.9,62,32,14,0.00,40.00,17,10,24,0.00
2013-7-11,90.0,73.8,59.0,50.0,38.9,26.0,71,34,11,0.00,40.00,19,10,24,0.00
2013-7-12,82.0,68.6,58.0,56.0,48.3,42.0,88,51,24,0.00,40.00,25,10,39,0.04
2013-7-13,76.0,65.6,58.0,56.0,51.5,46.0,76,61,39,0.00,40.00,14,6,24,0.00
2013-7-15,75.0,68.5,59.0,56.0,53.1,48.0,84,59,38,0.00,40.00,18,14,26,0.00
2013-7-16,75.0,63.4,52.0,52.0,45.6,38.0,89,57,27,0.00,40.00,20,12,29,0.00
2013-7-17,81.0,62.6,50.0,49.0,46.8,42.0,87,60,31,0.00,40.00,14,8,18,0.00
2013-7-18,78.0,67.8,59.0,55.0,46.9,43.0,78,48,31,0.00,40.00,20,10,29,0.00
2013-7-19,75.0,65.7,57.0,55.0,47.1,37.0,77,54,33,0.00,40.00,21,11,29,0.00
2013-7-20,76.0,65.9,56.0,50.0,40.9,-99.9,75,43,29,0.00,40.00,21,11,32,0.00
2013-7-21,85.0,70.6,53.0,50.0,29.7,14.0,78,27,8,0.00,40.00,22,9,34,0.00
2013-7-22,84.0,71.2,55.0,46.0,23.4,8.0,62,22,6,0.00,40.00,19,9,29,0.00
2013-7-23,82.0,72.2,61.0,53.0,25.9,11.0,68,22,7,0.00,40.00,18,9,25,0.00
2013-7-24,76.0,66.2,55.0,53.0,49.2,39.0,83,57,28,0.00,40.00,20,9,29,0.00
2013-7-25,69.0,60.8,52.0,51.0,46.9,43.0,94,62,41,0.00,40.00,21,10,27,0.05
2013-7-26,76.0,64.1,47.0,50.0,41.5,32.0,94,48,22,0.00,40.00,16,6,26,0.00
2013-7-27,75.0,63.9,53.0,52.0,41.0,34.0,89,48,24,0.00,40.00,13,6,24,0.01
2013-7-28,71.0,58.6,52.0,52.0,47.5,41.0,87,69,34,0.00,40.00,16,6,29,0.04
2013-7-29,70.0,61.9,55.0,49.0,40.3,27.0,80,47,21,0.00,40.00,21,8,32,0.00
2013-7-30,75.0,62.6,51.0,45.0,40.9,36.0,76,47,24,0.00,40.00,14,7,26,0.00
2013-7-31,77.0,65.7,52.0,51.0,41.0,32.0,72,44,19,0.00,40.00,18,7,24,0.00
2013-8-1,76.0,63.6,54.0,49.0,42.9,35.0,76,50,25,0.00,40.00,23,9,40,0.04
2013-8-2,79.0,69.1,59.0,45.0,40.1,33.0,60,37,20,0.00,40.00,29,13,45,0.00
2013-8-3,79.0,65.5,53.0,53.0,42.1,33.0,87,48,22,0.00,40.00,17,9,27,0.00
2013-8-4,79.0,67.1,51.0,49.0,38.4,28.0,91,40,17,0.00,40.00,18,10,27,0.00
2013-8-5,75.0,68.9,62.0,42.0,35.5,30.0,47,30,23,0.00,40.00,22,14,30,0.00
2013-8-6,78.0,68.3,55.0,39.0,33.0,24.0,54,29,14,0.00,40.00,19,8,28,0.00
2013-8-7,74.0,65.8,53.0,49.0,38.9,30.0,77,40,20,0.00,40.00,19,7,26,0.00
2013-8-8,69.0,57.9,44.0,48.0,40.3,33.0,100,55,30,0.00,40.00,30,7,39,0.00
2013-8-9,69.0,59.1,48.0,44.0,39.5,35.0,70,50,30,0.00,40.00,21,8,27,0.00
2013-8-10,76.0,62.8,48.0,43.0,36.4,24.0,81,41,15,0.00,40.00,20,7,26,0.00
2013-8-11,68.0,60.8,54.0,46.0,39.2,35.0,60,45,30,0.00,40.00,18,6,26,0.00